Location: Ladrillo (historical)
(32.8195°N, 117.2231°W)
Time: 15:45:42
(UTC+00:00)

Transit 2A - Visible Passes

Search period start: 27 February 2021 00:00
Search period end: 09 March 2021 00:00
Orbit: 600 x 958 km, 66.7° (Epoch: 26 February)

Date Brightness Start Highest point End Pass type
(mag) Time Alt. Az. Time Alt. Az. Time Alt. Az.
27 Feb 6.9 03:26:36 10° SW 03:32:03 49° WNW 03:37:00 10° NNE visible
27 Feb 6.6 12:19:48 24° N 12:22:00 44° ENE 12:26:12 10° SE visible
28 Feb 6.2 02:52:12 10° SSW 02:57:52 75° WNW 03:02:59 10° NNE visible
28 Feb 7.4 11:47:52 27° ENE 11:47:52 27° ENE 11:51:30 10° ESE visible
28 Feb 6.8 13:28:27 14° WNW 13:30:39 20° WSW 13:33:56 10° SSW visible
01 Mar 6.0 02:18:03 10° SSW 02:23:43 72° ESE 02:28:50 10° NNE visible
01 Mar 8.8 04:04:35 10° W 04:07:12 14° NW 04:09:44 10° NNW visible
01 Mar 8.6 11:16:04 11° E 11:16:04 11° E 11:16:24 10° E visible
01 Mar 6.1 12:56:40 34° WSW 12:56:40 34° WSW 13:00:37 10° S visible
02 Mar 8.5 03:28:53 10° WSW 03:32:51 20° NW 03:36:34 10° N visible
02 Mar 7.1 12:24:57 25° S 12:24:57 25° S 12:26:53 10° SSE visible
03 Mar 7.9 02:53:47 10° WSW 02:58:34 30° WNW 03:02:59 10° N visible
04 Mar 7.3 02:19:01 10° SW 02:24:19 44° WNW 02:29:10 10° NNE visible
06 Mar 8.8 02:57:24 10° WNW 02:59:30 12° NW 03:01:33 10° NNW visible
07 Mar 8.5 02:21:29 10° W 02:25:09 18° NW 02:28:36 10° NNW visible
